[ hide orbit diagram ]
For accurate long-term ephemerides, please instead use our Horizons system.This orbit viewer was implemented using two-body methods, and hence should not be used for determining accurate long-term trajectories (over several years or decades) or planetary encounter circumstances.
Orbital Elements at Epoch 2459000.5 (2020-May-31.0) TDB
Reference: JPL 18 (heliocentric ecliptic J2000)
Element | Value | Uncertainty (1-sigma) | Units |
e | .09735001374253362 | 2.9323e-08 | |
a | 2.31533907497917 | 9.4273e-09 | au |
q | 2.089940784211323 | 6.9724e-08 | au |
i | 4.46806547775549 | 3.4305e-06 | deg |
node | 96.57822829148894 | 5.2638e-05 | deg |
peri | 344.7736443421939 | 5.7913e-05 | deg |
M | 227.9973884847892 | 2.4958e-05 | deg |
tp | 2459472.346079862544 (2021-Sep-14.84607986) | 9.0532e-05 | TDB |
period | 1286.827486219407 3.52 | 7.8593e-06 2.152e-08 | d yr |
n | .2797577793878574 | 1.7086e-09 | deg/d |
Q | 2.540737365747018 | 1.0345e-08 | au |
|
| | Orbit Determination Parameters
Additional Information
|
[ show covariance matrix ]
Physical Parameter Table
Parameter |
Symbol |
Value |
Units |
Sigma |
Reference |
Notes |
absolute magnitude |
H |
16.5 |
|
n/a |
MPO314276 |
|
|
134951 (2001 CK7) Discovered 2001-Feb-01 by LINEAR at Socorro |
Reference: 20060907/Numbers.arc | Last Updated: 2006-09-10 |
|
|